Location: Newark
(47.5989°N, 4.6950°E)
Time: 07:54:24
(UTC+00:00)

ISS - Pass Details

Date: 27 November 2019
Orbit: 411 x 421 km, 51.6° (Epoch: 08 December)

Event Time Altitude Azimuth Distance (km) Brightness Sun altitude
Rises 16:34:49 0° 230° (SW) 2,344 1.8 -6.9°
Reaches altitude 10° 16:36:55 10° 225° (SW) 1,487 0.4 -7.2°
Maximum altitude 16:40:10 51° 149° (SSE) 529 -3.3 -7.7°
Enters shadow 16:43:18 11° 72° (ENE) 1,436 -1.7 -8.2°
